{"data":{"norad_id":55938,"epoch":"2026-09-20T18:55:32.626848Z","epoch_age_seconds":81197,"freshness":"FRESH","line1":"1 55938U 23037AA  26263.78857207 -.00000503  00000+0 -34363-4 0  9990","line2":"2 55938  69.9998 152.5637 0002546 281.5211  78.5662 14.98325219193201","mean_motion":14.98325219,"eccentricity":0.0002546,"inclination_deg":69.9998,"raan_deg":152.5637,"arg_perigee_deg":281.5211,"mean_anomaly_deg":78.5662,"bstar":-3.4363e-5,"rev_number":19320,"period_min":96.107305793136,"perigee_km":570.30115295758,"apogee_km":573.84019870611,"semimajor_km":6950.2076758318,"source":"CELESTRAK","updated_at":"2026-09-21T09:00:33.327117Z"}}